Weather Roundup
Issued by NWS Chicago, IL

Home | Current Version | Previous Version | Text Only | Print | Product List | Glossary On
Versions: 1 2 3 4 5 6 7 8 9 10 11 12 13 14 15 16 17 18 19 20 21 22 23 24 25 26 27 28 29 30 31 32 33 34 35 36 37 38 39 40 41 42 43 44 45 46 47 48 49 50
000
NZUS59 KLOT 262209
HRRLOT

CHICAGO AREA WEATHER ROUNDUP
NATIONAL WEATHER SERVICE CHICAGO/ROMEOVILLE IL
500 PM CDT TUE SEP 26 2017

NOTE: "FAIR" INDICATES FEW OR NO CLOUDS BELOW 12,000 FEET WITH NO
SIGNIFICANT WEATHER AND/OR OBSTRUCTIONS TO VISIBILITY.

* THESE STATIONS ARE NOT UNDER NWS QUALITY CONTROL. THEY ALSO MAY NOT
  REPORT WEATHER SUCH AS PRECIPITATION OR FOG.

ILZ005-006-012>014-019>023-262300-
NORTHEAST ILLINOIS

CITY           SKY/WX    TMP DP  RH WIND       PRES   REMARKS
OHARE          PTSUNNY   90  58  33 W12G20    29.89S HX  89
MIDWAY         PTSUNNY   90  58  33 SW13G22   29.89S HX  89
AURORA         PTSUNNY   87  63  44 SW10      29.91S HX  88
LANSING*       MOSUNNY   88  63  43 SW13      29.91S HX  88
JOLIET*        PTSUNNY   90  61  38 SW7       29.90S HX  90
WAUKEGAN       MOSUNNY   87  62  43 SW7       29.88S HX  87
DUPAGE AIRPORT MOSUNNY   88  61  40 SW12      29.90S HX  88
WHEELING       SUNNY     90  58  33 SW12G22   29.90S HX  89
MORRIS*        MOSUNNY   89  60  36 W12       29.89F HX  88
LEWIS AIRPORT* PTSUNNY   87  60  39 SW6       29.90S HX  86
NORTHERLY ISL    N/A     89  55  31 W7          N/A  HX  87
$$

WIZ051-052-058>065-066-070>072-262300-
SOUTHEAST WISCONSIN

CITY           SKY/WX    TMP DP  RH WIND       PRES   REMARKS
MILWAUKEE      TSTM      71  66  84 W17G37    29.92R VSB 1
KENOSHA*       CLOUDY    83  63  50 W10       29.90R HX  84
RACINE*        CLOUDY    76  68  76 NW9       29.91R
WAUKESHA       PTSUNNY   79  64  61 W6        29.92R HX  81
WEST BEND        N/A     79  63  57 W6        29.90S HX  80
$$

INZ001>003-010>013-019-020-262300-
NORTHWEST INDIANA

CITY           SKY/WX    TMP DP  RH WIND       PRES   REMARKS
GARY*          MOSUNNY   90  52  27 SW9       29.90F HX  87
MICHIGAN CITY* NOT AVBL
RENSSELAER*    NOT AVBL
VALPARAISO     SUNNY     90  61  37 W13       29.92F HX  90
$$

LMZ740>746-262300-
SOUTHERN LAKE MICHIGAN

STATION/POSITION TIME  SKY/WX   TEMP WIND        PRES    VSBY
                                AIR  DIR/SP/G
                 (UTC)          (F)  (DEG/KT/KT) (MB)    (MI)
HARRISON CRIB    2130            89  240/ 16/ 18   N/A
BURNHAM HARBOR   2200            90  200/  7/ 14   N/A
CALUMET HARBOR   2148            89  220/  9/ 15 1011.8F
BURNS HARBOR     2140            87  210/ 10/ 15 1012.9F
MICHIGAN CITY    2140            87  200/  9/ 10   N/A
$$

ABBREVIATIONS USED IN REMARKS
   TC - TEMPERATURE IN CELSIUS
  WCI - WIND CHILL INDEX
   HX - HEAT INDEX
  VSB - VISIBILITY
$$




USA.gov is the U.S. government's official web portal to all federal, state and local government web resources and services.